[Iaude] MPEC W58: 2016 WZ1 [a=1.82,e=0.63,i=13.3,H=19.2]

mpec at si.edu mpec at si.edu
Wed Nov 23 15:37:31 EST 2016


M.P.E.C. 2016-W58                                Issued 2016 Nov. 23, 20:31 UT
 
     The Minor Planet Electronic Circulars contain information on unusual
         minor planets and routine data on comets.  They are published
    on behalf of Division F of the International Astronomical Union by the
          Minor Planet Center, Smithsonian Astrophysical Observatory,
                          Cambridge, MA 02138, U.S.A.

             Prepared using the Tamkin Foundation Computer Network

                              MPC at CFA.HARVARD.EDU
            URL http://www.minorplanetcenter.net/    ISSN 1523-6714


                                   2016 WZ1
 
Observations:
     K16W01Z* C2016 11 19.14768 02 12 59.48 +29 56 08.9                qEW058G96
     K16W01Z  C2016 11 19.15375 02 12 58.53 +29 56 07.8          20.9 VqEW058G96
     K16W01Z  C2016 11 19.16024 02 12 57.55 +29 56 06.1          21.1 VqEW058G96
     K16W01Z  C2016 11 19.16482 02 12 56.86 +29 56 05.7          21.0 VqEW058G96
     K16W01Z  C2016 11 19.35565502 12 28.01 +29 55 13.6          20.9 VUEW058H01
     K16W01Z  C2016 11 19.36302402 12 26.90 +29 55 11.5          21.1 VUEW058H01
     K16W01Z KC2016 11 19.36598 02 12 26.43 +29 55 10.9          21.1 RoEW058291
     K16W01Z KC2016 11 19.36827 02 12 26.16 +29 55 10.8          21.1 RoEW058291
     K16W01Z  C2016 11 19.36936902 12 25.96 +29 55 09.7          20.9 VUEW058H01
     K16W01Z KC2016 11 19.37054 02 12 25.80 +29 55 10.3          21.1 RoEW058291
     K16W01Z  C2016 11 19.37621202 12 24.93 +29 55 07.7          20.5 VUEW058H01
     K16W01Z  C2016 11 19.37665 02 12 24.93 +29 55 07.5          21.3 VqEW058G96
     K16W01Z  C2016 11 19.37983 02 12 24.38 +29 55 07.8          21.6 VqEW058G96
     K16W01Z  C2016 11 19.38319 02 12 23.89 +29 55 06.7          21.7 VqEW058G96
     K16W01Z KC2016 11 20.36338 02 09 59.65 +29 50 35.3          21.1 RoEW058291
     K16W01Z KC2016 11 20.36552 02 09 59.29 +29 50 35.1          20.9 RoEW058291
     K16W01Z KC2016 11 20.36769 02 09 58.98 +29 50 34.0          21.4 RoEW058291
     K16W01Z  C2016 11 20.39134 02 09 55.46 +29 50 26.3          20.4 VqEW058G96
     K16W01Z  C2016 11 20.39517 02 09 54.88 +29 50 25.3                qEW058G96
     K16W01Z  C2016 11 20.40251 02 09 53.82 +29 50 22.5          21.6 VqEW058G96
     K16W01Z KC2016 11 21.22849902 07 53.11 +29 46 18.9          20.9 VuEW058H21
     K16W01Z KC2016 11 21.23846802 07 51.63 +29 46 15.9          20.7 VuEW058H21
     K16W01Z KC2016 11 21.24986502 07 49.92 +29 46 12.3          20.8 VuEW058H21
     K16W01Z "C2016 11 21.27953702 07 45.63 +29 46 04.2          20.8 RtEW058705
     K16W01Z "C2016 11 21.28055202 07 45.48 +29 46 04.0          20.8 RtEW058705
     K16W01Z "C2016 11 21.28160302 07 45.31 +29 46 03.6          20.7 RtEW058705
     K16W01Z KC2016 11 22.89923 02 03 50.46 +29 37 22.4          20.3 RoEW058K88
     K16W01Z KC2016 11 22.91534 02 03 48.09 +29 37 16.9          20.5 RoEW058K88
 
Observer details:
291 LPL/Spacewatch II.  Observer T. H. Bressi.  1.8-m f/2.7 reflector + CCD.
705 Apache Point.  Observers K. Nault, M. Hammergren, M. Brucker.  Measurer
    K. Nault.  3.5-m f/10 reflector + CCD.
G96 Mt. Lemmon Survey.  Observer G. J. Leonard.  Measurers E. J. Christensen,
    D. C. Fuls, A. R. Gibbs, A. D. Grauer, J. A. Johnson, R. A. Kowalski,
    S. M. Larson, G. J. Leonard, R. G. Matheny, R. L. Seaman, F. C. Shelly.
    1.5-m reflector + 10K CCD.
H01 Magdalena Ridge Observatory, Socorro.  Observers W. H. Ryan, E. V. Ryan.
    Measurer W. H. Ryan.  2.4-m f/8.9 reflector + CCD.
H21 Astronomical Research Observatory, Westfield.  Observer R. Holmes.
    Measurers S. Foglia, L. Buzzi, T. Linder, R. Holmes.  0.76-m f/3.0
    astrograph + CCD.
K88 GINOP-KHK, Piszkesteto.  Observers B. Cseh, K. Sarneczky.  Measurer
    K. Sarneczky.  0.60-m Schmidt + CCD.
 
Orbital elements:
2016 WZ1                                                 Earth MOID = 0.2113 AU
Epoch 2017 Feb. 16.0 TT = JDT 2457800.5                 MPC
M 338.52550              (2000.0)            P               Q
n   0.40157295     Peri.  166.82354     -0.99799262     +0.02305702
a   1.8195322      Node    14.88079     -0.05351716     -0.80503863
e   0.6299711      Incl.   13.27827     +0.03386221     -0.59277414
P   2.45           H   19.2           G   0.15           U   9
Residuals in seconds of arc
161119 G96  0.2+  0.6-    161119 H01  0.1+  0.1-    161121 H21  0.1+  0.1-
161119 G96  0.2-  0.2-    161119 G96  0.8+  0.6-    161121 H21  0.2+  0.0
161119 G96  0.2-  0.2-    161119 G96  0.2-  0.6+    161121 H21  0.1+  0.0
161119 G96  0.2-  0.5+    161119 G96  0.0   0.4+    161121 705  0.1+  0.3-
161119 H01  0.1+  0.1-    161120 291  0.1+  0.1+    161121 705  0.2+  0.2-
161119 H01  0.0   0.1-    161120 291  0.4-  0.6+    161121 705  0.0   0.3-
161119 291  0.6-  0.4-    161120 291  0.2-  0.1+    161122 K88  0.1-  0.0
161119 291  0.4+  0.2+    161120 G96  0.1-  0.2-    161122 K88  0.0   0.1+
161119 H01  0.2+  0.1-    161120 G96  0.2-  0.0
161119 291  0.1+  0.3+    161120 G96  0.2+  0.5-

Ephemeris:
2016 WZ1                 a,e,i = 1.82, 0.63, 13                  q = 0.6733
Date    TT    R. A. (2000) Decl.     Delta      r     Elong.  Phase     V
2016 10 24    03 10 30.6 +29 46 55   1.1309  2.0744   154.8    11.8    21.8
...
2016 11 08    02 40 05.9 +30 21 41   0.9920  1.9677   165.9     7.1    21.2
...
2016 11 16    02 20 45.1 +30 08 08   0.9443  1.9076   161.3     9.5    21.1
...
2016 11 22    02 06 01.0 +29 42 20   0.9207  1.8612   154.5    13.2    21.1
2016 11 23    02 03 36.2 +29 36 52   0.9177  1.8533   153.2    13.9    21.1
2016 11 24    02 01 12.7 +29 31 05   0.9150  1.8454   151.9    14.6    21.2
...
2016 11 30    01 47 30.2 +28 50 58   0.9040  1.7973   143.9    18.9    21.2
...
2016 12 08    01 31 42.6 +27 48 45   0.9018  1.7311   133.1    24.6    21.3
...
2016 12 23    01 12 15.5 +25 58 28   0.9226  1.6007   114.2    34.1    21.5

A. U. Tomatic                (C) Copyright 2016 MPC           M.P.E.C. 2016-W58




More information about the Iaude mailing list